Tracking 31027 objects as of 19-Jul-2025
HD Live streaming from Space Station
objects crossing your sky now

FENGYUN 1C DEB

Track FENGYUN 1C DEB now!
10-day predictions


NORAD ID: 31782
Int'l Code: 1999-025CGH
Perigee: 721.6 km
Apogee: 837.9 km
Inclination: 98.9 °
Period: 100.3 minutes
Semi major axis: 7150 km
RCS: 0.0103 m2 (small)
Launch date: May 10, 1999
Source: People's Republic of China (PRC)
Launch site: Taiyaun Space Center, China (TSC)

Note: This is SATELLITE DEBRIS
Your satellite tracking list
IRIDIUM 135
Track 1 satellite(s)




NASA's NSSDC Master Catalog

Two Line Element Set (TLE):
1 31782U 99025CGH 25197.69560009  .00000692  00000-0  24617-3 0  9995
2 31782  98.8908 354.0864 0081352  75.0890 305.7826 14.35731344945524
Source of the keplerian elements: AFSPC